www.pogodaiklimat.ru

Погода и климат >> Архив погоды >> Великобритания >> Кросби


ПОГОДА в Кросби

  • Прогноз погоды в Кросби
  • Монитор погоды в Кросби

АРХИВ ПОГОДЫ в Кросби

Время (UTC), дата Ветер
(напр.,м/с)
 
Видим.   Явления Облачность Т
(С)
Тd
(С)
f
(%)
Тe
(С)
Тes
(С)
Комфортность P
(гПа)
Po
(гПа)
Тmin
(С)
Tmax
(С)
R
(мм)
R24
(мм)
S
(см)
22 11.06 СЗ 4 10 км дождь н/о +9.4 +8.6 95 +6 +6 1017.9 1016.8
23 11.06 СЗ 5 11 км дождь н/о +9.3 +8.4 94 +6 +6 1017.4 1016.3
00 12.06 СЗ 5 9000 м дождь н/о +9.0 +8.2 95 +6 +6 1017.0 1015.9 8
01 12.06 СЗ 6 12 км дождь н/о +8.9 +8.0 94 +5 +5 1016.2 1015.1
02 12.06 СЗ 5 9000 м дождь н/о +8.9 +8.2 95 +5 +5 1015.4 1014.3
03 12.06 СЗ 5 10 км дождь н/о +8.9 +8.2 95 +5 +5 1015.1 1014.0
04 12.06 СЗ 5 6000 м дождь н/о +8.9 +8.4 97 +5 +5 1014.5 1013.4
05 12.06 СЗ 5 9000 м слаб. дождь н/о +9.2 +8.7 97 +6 +6 1013.9 1012.8
06 12.06 СЗ 5 8000 м дождь н/о +9.3 +8.6 95 +6 +6 1013.6 1012.5 +8.9 23
07 12.06 СЗ 4 6000 м дождь н/о +9.6 +8.9 95 +7 +7 1013.3 1012.2
08 12.06 СЗ 4 12 км в посл. час дождь н/о +10.1 +9.4 95 +7 +7 1012.8 1011.7
09 12.06 СЗ 5 18 км н/о +11.0 +9.6 91 +8 +8 1012.4 1011.3
10 12.06 СЗ 5 12 км н/о +11.6 +10.2 91 +9 +9 1012.3 1011.2
11 12.06 СЗ 4 5000 м дым н/о +12.2 +11.0 92 +10 +10 1012.1 1011.0
12 12.06 СЗ 5 5000 м дым н/о +12.1 +10.5 90 +10 +10 1011.7 1010.6 3
13 12.06 СЗ 4 50 км н/о +12.8 +10.8 88 +11 +11 1011.2 1010.1
14 12.06 СЗ 5 50 км н/о +13.5 +10.9 84 +11 +11 1010.6 1009.5
15 12.06 С 6 50 км н/о +14.0 +10.9 82 +12 +12 1009.9 1008.8
16 12.06 СЗ 6 50 км н/о +13.6 +10.6 82 +11 +11 1009.7 1008.6
17 12.06 СЗ 5 45 км н/о +13.4 +10.7 84 +12 +12 1009.2 1008.2
18 12.06 СЗ 6 50 км н/о +13.5 +10.9 84 +11 +11 1008.6 1007.5 +14.2 3
19 12.06 С 6 50 км в посл. час дождь н/о +12.8 +10.9 88 +10 +10 1008.3 1007.2
20 12.06 СЗ 4 50 км н/о +12.4 +10.9 91 +10 +10 1007.9 1006.8
21 12.06 С 4 50 км н/о +12.0 +10.7 92 +10 +10 1007.5 1006.5
22 12.06 С 4 50 км н/о +11.8 +10.7 93 +9 +9 1007.0 1005.9
23 12.06 С 2 50 км н/о +11.9 +10.9 94 +11 +11 1006.6 1005.5
00 13.06 СЗ 4 7000 м дождь н/о +11.9 +11.3 96 +10 +10 1005.9 1004.8 0.8
01 13.06 СЗ 5 9000 м дождь н/о +11.5 +11.1 97 +9 +9 1005.1 1004.0
02 13.06 С 4 15 км слаб. морось н/о +11.3 +10.9 97 +9 +9 1004.2 1003.1
03 13.06 С 4 50 км в посл. час дождь н/о +11.1 +10.7 97 +9 +9 1003.9 1002.8
04 13.06 СЗ 5 5000 м слаб. ливневой дождь н/о +10.9 +10.5 97 +8 +8 1003.6 1002.6
05 13.06 СЗ 7 20 км слаб. ливневой дождь н/о +10.3 +9.4 94 +7 +7 1003.4 1002.3
06 13.06 СЗ 7 35 км слаб. дождь н/о +10.3 +9.2 93 +6 +6 1003.2 1002.1 +10.3 7
07 13.06 СЗ 7 45 км слаб. дождь н/о +10.4 +9.0 91 +7 +7 1003.1 1002.1
08 13.06 СЗ 7 16 км слаб. ливневой дождь н/о +10.5 +9.2 92 +7 +7 1003.2 1002.2
09 13.06 СЗ 7 18 км слаб. дождь н/о +10.6 +9.4 92 +7 +7 1003.4 1002.3
10 13.06 С 6 10 км дождь н/о +10.3 +9.2 93 +7 +7 1003.3 1002.2
11 13.06 СЗ 5 50 км слаб. дождь н/о +10.9 +9.7 92 +8 +8 1003.6 1002.5
12 13.06 СЗ 5 19 км слаб. дождь н/о +11.2 +9.6 90 +8 +8 1003.8 1002.7 3
13 13.06 З 6 27 км слаб. морось н/о +11.4 +10.2 92 +8 +8 1003.9 1002.8
14 13.06 З 4 50 км слаб. морось с дождем н/о +11.3 +9.6 89 +9 +9 1004.0 1002.9
15 13.06 З 6 27 км слаб. дождь н/о +11.4 +8.8 84 +9 +9 1004.0 1003.0
16 13.06 З 7 50 км в посл. час дождь н/о +11.5 +9.0 85 +8 +8 1004.1 1003.0
17 13.06 З 6 50 км н/о +11.9 +8.3 79 +9 +9 1004.2 1003.1
18 13.06 ЮЗ 6 50 км н/о +11.8 +8.1 78 +9 +9 1004.4 1003.3 +12.4 3
19 13.06 ЮЗ 5 23 км н/о +11.6 +8.3 80 +9 +9 1004.4 1003.3
20 13.06 ЮЗ 5 40 км н/о +11.7 +8.3 80 +9 +9 1004.8 1003.7
21 13.06 ЮЗ 6 23 км н/о +10.7 +8.9 89 +7 +7 1005.6 1004.5
22 13.06 Ю 4 40 км н/о +11.2 +7.2 76 +9 +9 1005.7 1004.6
23 13.06 Ю 6 35 км н/о +11.2 +7.5 78 +8 +8 1005.7 1004.6
00 14.06 Ю 5 10 км слаб. дождь н/о +10.4 +7.8 84 +7 +7 1005.8 1004.7 0.6
01 14.06 Ю 4 13 км дождь н/о +10.4 +8.2 86 +8 +8 1005.5 1004.4
02 14.06 ЮВ 3 35 км слаб. дождь н/о +9.9 +7.6 86 +8 +8 1005.2 1004.1
03 14.06 В 3 23 км слаб. дождь н/о +9.3 +7.8 90 +7 +7 1005.1 1004.0
04 14.06 В 2 6000 м слаб. дождь н/о +9.4 +8.7 95 +8 +8 1005.2 1004.1
05 14.06 В 1 4100 м слаб. дождь н/о +9.4 +8.8 96 +9 +9 1005.2 1004.1
06 14.06 ЮВ 1 2100 м морось н/о +9.2 +8.6 96 +9 +9 1005.3 1004.2 +9.1 6
07 14.06 СВ 2 14 км слаб. дождь н/о +9.1 +8.6 97 +8 +8 1005.3 1004.2
08 14.06 В 2 30 км слаб. морось с дождем н/о +10.0 +9.5 97 +8 +8 1005.8 1004.7
09 14.06 Ю 3 35 км в посл. час дождь н/о +11.2 +9.4 89 +9 +9 1006.3 1005.2
10 14.06 Ю 3 35 км н/о +13.5 +9.6 77 +13 +13 1006.6 1005.5
11 14.06 ЮЗ 1 50 км н/о +13.7 +7.9 68 +14 +14 1006.9 1005.9
12 14.06 ЮЗ 2 45 км н/о +14.2 +9.1 71 +14 +14 1007.1 1006.0 2
13 14.06 ЮЗ 2 50 км н/о +15.3 +8.2 63 +15 +15 1007.2 1006.1
14 14.06 ЮЗ 2 40 км н/о +15.2 +7.8 61 +15 +15 1007.3 1006.2
15 14.06 ЮЗ 2 45 км н/о +15.3 +8.3 63 +15 +15 1007.4 1006.4
16 14.06 Ю 2 50 км н/о +16.0 +8.2 60 +16 +16 1007.3 1006.3
17 14.06 Ю 1 40 км в посл. час дождь н/о +15.9 +8.0 59 +17 +17 1007.4 1006.3
18 14.06 ЮЗ 2 50 км н/о +16.2 +8.5 60 +17 +17 1007.5 1006.4 +16.3 2
19 14.06 ЮЗ 1 40 км н/о +15.6 +8.8 64 +16 +16 1007.6 1006.6
20 14.06 Ю 3 50 км н/о +15.0 +8.9 67 +14 +14 1008.0 1007.0
21 14.06 Ю 2 50 км н/о +14.3 +10.2 76 +14 +14 1008.4 1007.4
22 14.06 ЮВ 5 45 км н/о +13.4 +9.5 77 +12 +12 1008.7 1007.6
23 14.06 ЮВ 4 50 км н/о +12.6 +9.0 79 +11 +11 1008.6 1007.5
00 15.06 ЮВ 5 50 км н/о +12.7 +8.6 76 +10 +10 1008.9 1007.8
01 15.06 ЮВ 5 45 км н/о +12.6 +8.4 76 +10 +10 1009.0 1007.9
02 15.06 ЮВ 5 40 км н/о +12.3 +7.9 74 +10 +10 1008.6 1007.5
03 15.06 В 4 50 км н/о +12.0 +8.5 79 +10 +10 1008.4 1007.3
04 15.06 В 4 35 км н/о +11.5 +9.1 85 +9 +9 1008.0 1006.9
05 15.06 В 4 35 км н/о +11.7 +9.4 86 +9 +9 1007.8 1006.7
06 15.06 В 5 35 км н/о +11.7 +9.1 84 +9 +9 1007.7 1006.6 +11.5
07 15.06 В 7 30 км н/о +12.2 +9.1 81 +9 +9 1007.6 1006.5
08 15.06 В 6 35 км н/о +14.0 +9.9 76 +12 +12 1007.8 1006.7
09 15.06 ЮВ 6 35 км н/о +14.3 +9.8 74 +12 +12 1008.1 1007.0
10 15.06 ЮВ 7 13 км слаб. морось с дождем н/о +13.5 +11.3 87 +11 +11 1008.4 1007.4
11 15.06 Ю 6 40 км в посл. час дождь н/о +14.9 +9.5 70 +13 +13 1008.8 1007.8
12 15.06 ЮЗ 6 45 км н/о +16.0 +9.2 64 +15 +15 1009.3 1008.2 0.0
13 15.06 ЮЗ 6 45 км н/о +16.0 +8.3 60 +15 +15 1009.4 1008.4
14 15.06 З 5 25 км н/о +17.2 +11.4 69 +17 +17 1009.5 1008.4
15 15.06 З 6 40 км н/о +15.6 +9.1 65 +14 +14 1009.8 1008.7
16 15.06 З 4 40 км н/о +15.0 +8.1 63 +14 +14 1010.0 1008.9
17 15.06 З 3 45 км н/о +14.7 +8.1 65 +14 +14 1010.1 1009.1
18 15.06 Ю 5 50 км н/о +15.2 +7.4 60 +14 +14 1010.1 1009.0 +17.4 0.0
19 15.06 Ю 2 50 км в посл. час дождь н/о +14.8 +6.9 59 +15 +15 1010.3 1009.2
20 15.06 Ю 6 45 км н/о +14.8 +7.9 63 +13 +13 1010.5 1009.4
21 15.06 Ю 8 50 км н/о +14.0 +6.8 62 +12 +12 1011.1 1010.0
22 15.06 Ю 8 40 км н/о +13.1 +7.1 67 +10 +10 1011.4 1010.3
23 15.06 Ю 6 40 км н/о +12.5 +5.9 64 +10 +10 1011.5 1010.4
00 16.06 Ю 5 50 км н/о +12.2 +6.3 67 +10 +10 1011.6 1010.5 0.0
01 16.06 В 2 50 км н/о +10.9 +6.2 73 +10 +10 1011.5 1010.4
02 16.06 В 4 50 км слаб. ливневой дождь н/о +11.1 +7.9 81 +9 +9 1011.5 1010.4
03 16.06 ЮВ 5 25 км слаб. морось с дождем н/о +11.2 +7.9 80 +8 +8 1011.5 1010.5
04 16.06 ЮВ 4 50 км в посл. час дождь н/о +10.3 +7.6 83 +8 +8 1011.3 1010.3
05 16.06 В 4 50 км н/о +10.6 +7.4 81 +8 +8 1011.4 1010.3
06 16.06 В 4 40 км н/о +11.0 +7.7 80 +9 +9 1011.6 1010.5 +10.2 0.2
07 16.06 ЮВ 4 40 км н/о +11.7 +8.2 79 +10 +10 1011.7 1010.6
08 16.06 ЮВ 5 50 км н/о +12.7 +9.4 80 +10 +10 1011.8 1010.8
09 16.06 ЮВ 5 35 км н/о +14.5 +10.6 77 +13 +13 1011.9 1010.8
10 16.06 ЮВ 6 40 км н/о +16.1 +10.7 70 +15 +15 1011.9 1010.8
11 16.06 ЮВ 6 35 км н/о +16.5 +10.5 68 +15 +15 1011.5 1010.4
12 16.06 ЮВ 6 40 км н/о +17.3 +10.7 65 +16 +16 1011.2 1010.1
13 16.06 Ю 6 28 км слаб. ливневой дождь н/о +15.9 +10.8 72 +15 +15 1011.5 1010.4
14 16.06 Ю 11
{14}
27 км в посл. час дождь н/о +16.5 +10.4 67 +15 +15 1011.8 1010.7
15 16.06 Ю 10
{13}
50 км н/о +16.8 +8.3 57 +15 +15 1012.1 1011.0
16 16.06 Ю 8 40 км н/о +16.9 +11.0 68 +16 +16 1011.9 1010.8
17 16.06 Ю 8 9000 м ливневой дождь н/о +15.3 +11.5 78 +13 +13 1011.7 1010.6
18 16.06 ЮВ 8
{13}
50 км в посл. час дождь н/о +15.0 +11.9 82 +13 +13 1011.3 1010.2 +17.9 2
19 16.06 ЮВ 7 50 км в посл. час дождь н/о +15.1 +12.6 85 +13 +13 1011.3 1010.2
20 16.06 ЮВ 10
{13}
45 км в посл. час дождь н/о +14.6 +12.5 87 +12 +12 1011.3 1010.2
21 16.06 Ю 6
{13}
11 км в посл. час дождь н/о +14.3 +12.6 90 +12 +12 1011.5 1010.4
22 16.06 ЮВ 10 16 км слаб. ливневой дождь н/о +14.7 +11.7 82 +12 +12 1011.3 1010.3
23 16.06 ЮВ 10
{14}
7000 м ливневой дождь н/о +14.2 +11.3 83 +11 +11 1011.6 1010.6
00 17.06 ЮВ 11
{14}
22 км в посл. час дождь н/о +14.3 +10.9 80 +11 +11 1011.4 1010.3 2
01 17.06 ЮВ 10
{14}
45 км в посл. час дождь н/о +13.5 +11.2 86 +10 +10 1011.5 1010.4
02 17.06 ЮВ 9 5000 м слаб. дождь н/о +13.0 +11.9 93 +10 +10 1012.0 1010.9
03 17.06 Ю 8
{13}
45 км слаб. дождь н/о +12.5 +10.1 85 +9 +9 1012.1 1011.1
04 17.06 Ю 7 50 км в посл. час дождь н/о +12.8 +10.4 85 +10 +10 1012.3 1011.2
05 17.06 ЮВ 5 50 км в посл. час дождь н/о +12.5 +10.5 88 +10 +10 1012.6 1011.5
06 17.06 ЮВ 6 50 км н/о +12.8 +10.3 85 +10 +10 1012.6 1011.5 +12.4 5
07 17.06 В 4 50 км н/о +13.5 +10.7 83 +12 +12 1012.9 1011.8
08 17.06 ЮВ 7 45 км н/о +14.0 +11.0 82 +12 +12 1013.0 1012.0
09 17.06 ЮВ 6 50 км н/о +14.1 +11.7 85 +12 +12 1013.3 1012.2
10 17.06 ЮВ 3 18 км слаб. ливневой дождь н/о +14.3 +11.0 81 +13 +13 1013.7 1012.6
11 17.06 0 н/о 1012.6
12 17.06 0 19 км в посл. час дождь н/о 1012.7
13 17.06 0 н/о 1012.8
14 17.06 ЮЗ 7 35 км н/о +16.6 +11.1 70 +15 +15 1013.8 1012.7
15 17.06 ЮЗ 6 35 км н/о +17.4 +11.9 70 +17 +17 1013.5 1012.4
16 17.06 ЮЗ 8 45 км н/о +17.0 +11.3 69 +16 +16 1013.4 1012.4
17 17.06 ЮЗ 9 45 км н/о +17.0 +11.8 71 +16 +16 1013.5 1012.5
18 17.06 ЮЗ 8 40 км н/о +17.1 +10.6 66 +16 +16 1013.6 1012.5
19 17.06 ЮЗ 10
{13}
50 км н/о +16.2 +9.1 63 +14 +14 1013.5 1012.4
20 17.06 ЮЗ 6 35 км н/о +15.4 +9.4 67 +14 +14 1013.9 1012.8
21 17.06 ЮЗ 9 23 км н/о +14.5 +8.6 68 +12 +12 1014.1 1013.1
22 17.06 Ю 7 11 км н/о +13.9 +8.8 71 +12 +12 1014.4 1013.4
23 17.06 Ю 6 17 км н/о +13.5 +8.4 71 +11 +11 1014.5 1013.4
00 18.06 Ю 7 24 км н/о +13.5 +8.9 74 +11 +11 1014.3 1013.2
01 18.06 ЮЗ 6 35 км н/о +13.5 +9.2 75 +11 +11 1014.1 1013.0
02 18.06 Ю 3 45 км н/о +12.2 +8.4 78 +11 +11 1014.0 1012.9
03 18.06 Ю 6 45 км н/о +12.7 +9.2 79 +10 +10 1013.7 1012.6
04 18.06 Ю 5 45 км н/о +12.6 +9.8 83 +10 +10 1013.5 1012.4
05 18.06 ЮЗ 7 50 км н/о +13.3 +9.6 78 +11 +11 1013.4 1012.3
06 18.06 ЮЗ 7 45 км н/о +13.7 +9.6 76 +11 +11 1013.6 1012.5 +11.6
07 18.06 ЮЗ 6 35 км н/о +14.3 +9.7 74 +13 +13 1013.8 1012.7
08 18.06 ЮЗ 7 50 км н/о +14.8 +10.2 74 +13 +13 1013.9 1012.8
09 18.06 ЮЗ 5 30 км н/о +15.5 +10.2 71 +14 +14 1013.7 1012.6
10 18.06 З 3 16 км н/о +17.1 +11.1 68 +17 +17 1013.7 1012.6
11 18.06 СЗ 4 23 км н/о +17.0 +12.0 72 +17 +17 1013.6 1012.5
12 18.06 СЗ 5 17 км н/о +16.0 +11.3 74 +15 +15 1013.5 1012.4
13 18.06 СЗ 4 27 км н/о +16.0 +12.0 77 +15 +15 1013.4 1012.3
14 18.06 СЗ 4 30 км н/о +16.7 +11.9 73 +16 +16 1013.3 1012.2
15 18.06 СЗ 4 35 км н/о +16.9 +11.5 70 +17 +17 1012.9 1011.8
17 18.06 СЗ 5 40 км н/о +16.2 +10.8 70 +15 +15 1012.0 1010.9
18 18.06 С 4 45 км н/о +16.1 +10.0 67 +16 +16 1011.7 1010.6 +18.2
19 18.06 С 4 40 км н/о +15.2 +9.8 70 +14 +14 1011.5 1010.5
20 18.06 С 3 40 км в посл. час дождь н/о +14.3 +10.6 78 +14 +14 1011.3 1010.2
21 18.06 СЗ 2 12 км дождь н/о +13.7 +11.3 85 +13 +13 1011.3 1010.2
22 18.06 З 2 16 км дождь н/о +13.5 +10.4 82 +13 +13 1011.3 1010.2

 

Местоположение метеостанции Кросби (Великобритания): широта 53.50 долгота -3.07 высота над уровнем моря 9 м.

В архиве по умолчанию представлена погода в Кросби за последнюю неделю. Архивные данные за месяц целиком и за предыдущие месяцы, начиная с января 2011 года, Вы можете получить, выбрав интересующий диапазон дат из раскрывающегося списка и нажав кнопку "Ввод!".


*Определитесь, кто Вы:
робот инопланетянин человек

Внимание! Время в таблицах - всемирное. Для получения местного времени необходимо прибавить поправку, которая равна 0 ч.

Смотрите также архив погоды в соседних городах и на ближайших метеорологических станциях:

Погода в Блэкпуле (Великобритания) (30 км)
Погода в Гавардене (Великобритания) (37 км)
Погода в Риле (Великобритания) (40 км)
Погода на Ростерн Мир (Великобритания) (49 км)
Погода на Острове Уолни (Великобритания) (70 км)
Погода в Кейпл Кериг (Великобритания) (72 км)
Погода в Бала (Великобритания) (75 км)
Погода в Шобери (Великобритания) (82 км)
Погода в Лик-Торнклифф (Великобритания) (83 км)
Погода в Бингли (Великобритания) (87 км)

Пояснения к столбцам:

Ветер - указаны скорость ветра в м/с - средняя за 10 мин, порывы в срок и между сроками (в фигурных скобках) и направление, откуда дует ветер: С - северный, СВ - северо-восточный, В - восточный, ЮВ - юго-восточный, Ю - южный, ЮЗ - юго-западный, З - западный, СЗ - северо-западный.
Видимость - горизонтальная дальность видимости в метрах или километрах. При видимости от 1 до 10 км при отсутствии осадков обычно наблюдается дымка, при ухудшении видимости до 1 км и менее - туман. В сухую погоду видимость может ухудшаться дымом, пылью или мглою.
Явления - указаны атмосферные явления, наблюдавшиеся в срок или в последний час перед сроком; фигурными скобками обозначены явления, наблюдавшиеся между сроками (за 1-3 часа до срока); квадратными скобками обозначены град или гололедные отложения с указанием их диаметра в мм.
Облачность - указаны через наклонную черту общая и нижняя облачность в баллах и высота нижней границы облаков в метрах; квадратными скобками обозначены формы облаков: Ci - перистые, Cs - перисто-слоистые, Cc - перисто-кучевые, Ac - высококучевые, As - высокослоистые, Sc - слоисто-кучевые, Ns - слоисто-дождевые, Cu - кучевые, Cb - кучево-дождевые. Подробнее классификацию облаков см. в Атласе облаков (PDF).
T - Температура воздуха - температура, измеренная на высоте 2 м над землей.
Td - Температура точки росы - температура, при понижении до которой содержащийся в воздухе водяной пар достигнет насыщения.
f - Относительная влажность воздуха - влажноcть воздуха, измеренная на высоте 2 м над землей.
Te - Эффективная температура - температура, которую ощущает одетый по сезону человек в тени. Характеристика душности погоды. При расчете учитывается влияние влажности воздуха и скорости ветра на теплоощущения человека.
Tes - Эффективная температура на солнце - температура, которую ощущает человек, с поправкой на солнечный нагрев. Характеристика знойности погоды. Зависит от высоты солнца над горизонтом, облачности и скорости ветра. Ночью, в пасмурную погоду, а также при ветре 12 м/с и более поправка равна нулю.
P - Атмосферное давление - приведенное к уровню моря атмосферное давление.
Po - Атмосферное давление - измеренное на уровне метеостанции атмосферное давление.
Tmin - Минимальная температура - минимум температуры воздуха на высоте 2 м над землей.
Tmax - Максимальная температура - максимум температуры воздуха на высоте 2 м над землей.
R - Количество осадков - Количество выпавших осадков за период времени, мм. При наведении курсора мыши на число - период времени, за который выпало указанное количество осадков.
R24 - Количество осадков - Количество выпавших осадков за 24 часа, мм.
S - Снежный покров - Высота снежного покрова, см. При наведении курсора мыши на число - состояние снежного покрова и степень покрытия местности в баллах.